�������l�o���
Date,Time,MP-1(��Sv/h),MP-2(��Sv/h),MP-3(��Sv/h),MP-4(��Sv/h),MP-5(��Sv/h),MP-6(��Sv/h),MP-7(��Sv/h),����,����(m/s),���J
2017/03/09,00:00,0.396,0.244,0.405,0.373,0.335,0.196,0.167,���k��,9.1,��
2017/03/09,00:10,0.396,0.245,0.405,0.374,0.337,0.197,0.166,���k��,7.1,��
2017/03/09,00:20,0.397,0.245,0.405,0.373,0.337,0.197,0.168,���k��,7.3,��
2017/03/09,00:30,0.395,0.245,0.405,0.374,0.337,0.197,0.167,���k��,7.2,��
2017/03/09,00:40,0.395,0.245,0.406,0.372,0.337,0.198,0.167,���k��,8.7,��
2017/03/09,00:50,0.396,0.244,0.405,0.374,0.337,0.197,0.168,���k��,8.1,��
2017/03/09,01:00,0.396,0.244,0.405,0.375,0.336,0.197,0.167,���k��,9.6,��
2017/03/09,01:10,0.395,0.243,0.406,0.374,0.336,0.197,0.168,���k��,10.0,��
2017/03/09,01:20,0.396,0.244,0.405,0.375,0.336,0.198,0.167,���k��,9.7,��
2017/03/09,01:30,0.397,0.244,0.406,0.375,0.335,0.197,0.167,���k��,8.9,��
2017/03/09,01:40,0.397,0.244,0.406,0.374,0.336,0.197,0.168,��,8.3,��
2017/03/09,01:50,0.395,0.245,0.406,0.374,0.336,0.197,0.167,��,6.9,��
2017/03/09,02:00,0.396,0.243,0.406,0.373,0.335,0.197,0.168,��,9.8,��
2017/03/09,02:10,0.398,0.244,0.405,0.374,0.335,0.197,0.167,��,9.3,��
2017/03/09,02:20,0.396,0.244,0.406,0.375,0.336,0.198,0.167,��,9.1,��
2017/03/09,02:30,0.396,0.246,0.405,0.375,0.336,0.197,0.167,��,9.7,��
2017/03/09,02:40,0.395,0.244,0.406,0.373,0.336,0.197,0.167,��,10.7,��
2017/03/09,02:50,0.396,0.243,0.405,0.374,0.337,0.198,0.167,��,10.2,��
2017/03/09,03:00,0.397,0.243,0.408,0.373,0.335,0.197,0.168,��,9.2,��
2017/03/09,03:10,0.397,0.244,0.406,0.375,0.336,0.197,0.167,��,10.0,��
2017/03/09,03:20,0.397,0.245,0.405,0.374,0.335,0.198,0.167,���k��,10.4,��
2017/03/09,03:30,0.395,0.244,0.404,0.373,0.335,0.198,0.168,���k��,8.7,��
2017/03/09,03:40,0.398,0.244,0.406,0.372,0.336,0.197,0.167,��,7.5,��
2017/03/09,03:50,0.397,0.243,0.406,0.374,0.336,0.197,0.167,��,8.9,��
2017/03/09,04:00,0.397,0.246,0.407,0.376,0.336,0.197,0.167,��,9.9,��
2017/03/09,04:10,0.397,0.245,0.406,0.374,0.336,0.197,0.167,��,9.0,��
2017/03/09,04:20,0.396,0.244,0.405,0.374,0.337,0.198,0.167,��,9.8,��
2017/03/09,04:30,0.396,0.244,0.405,0.373,0.336,0.197,0.167,��,9.2,��
2017/03/09,04:40,0.397,0.245,0.406,0.374,0.336,0.196,0.168,���쐼,8.9,��
2017/03/09,04:50,0.396,0.245,0.406,0.374,0.334,0.197,0.167,���쐼,8.3,��
2017/03/09,05:00,0.396,0.245,0.405,0.373,0.336,0.198,0.167,��,9.0,��
2017/03/09,05:10,0.397,0.244,0.405,0.374,0.336,0.197,0.169,��,8.7,��
2017/03/09,05:20,0.397,0.245,0.407,0.374,0.336,0.197,0.168,��,10.0,��
2017/03/09,05:30,0.397,0.245,0.405,0.375,0.336,0.197,0.168,��,11.2,��
2017/03/09,05:40,0.397,0.245,0.405,0.375,0.336,0.197,0.167,���k��,10.1,��
2017/03/09,05:50,0.396,0.245,0.405,0.373,0.335,0.198,0.167,��,9.6,��
2017/03/09,06:00,0.397,0.246,0.406,0.375,0.337,0.197,0.167,��,8.3,��
2017/03/09,06:10,0.396,0.243,0.408,0.374,0.336,0.197,0.167,��,7.5,��
2017/03/09,06:20,0.396,0.244,0.405,0.374,0.336,0.197,0.167,��,7.3,��
2017/03/09,06:30,0.396,0.245,0.408,0.373,0.337,0.196,0.167,���쐼,7.1,��
2017/03/09,06:40,0.398,0.246,0.406,0.373,0.335,0.198,0.167,��,6.9,��
2017/03/09,06:50,0.394,0.244,0.405,0.374,0.336,0.198,0.167,���쐼,6.9,��
2017/03/09,07:00,0.396,0.245,0.407,0.374,0.336,0.197,0.167,���쐼,6.4,��
2017/03/09,07:10,0.394,0.244,0.406,0.374,0.335,0.196,0.167,���쐼,6.8,��
2017/03/09,07:20,0.397,0.244,0.406,0.372,0.336,0.197,0.167,��,6.4,��
2017/03/09,07:30,0.396,0.245,0.405,0.372,0.336,0.198,0.168,���쐼,7.0,��
2017/03/09,07:40,0.395,0.244,0.406,0.373,0.337,0.197,0.167,���쐼,5.6,��
2017/03/09,07:50,0.396,0.243,0.406,0.372,0.335,0.197,0.166,���쐼,6.3,��
2017/03/09,08:00,0.397,0.246,0.407,0.373,0.336,0.196,0.167,���쐼,8.0,��
2017/03/09,08:10,0.396,0.245,0.405,0.372,0.337,0.196,0.166,���쐼,6.5,��
2017/03/09,08:20,0.394,0.243,0.406,0.372,0.336,0.197,0.167,���쐼,6.7,��
2017/03/09,08:30,0.395,0.243,0.407,0.374,0.336,0.197,0.167,���쐼,5.2,��
2017/03/09,08:40,0.397,0.243,0.405,0.373,0.337,0.198,0.166,���쐼,2.8,��
2017/03/09,08:50,0.395,0.242,0.405,0.374,0.338,0.198,0.167,���쐼,5.5,��
2017/03/09,09:00,0.395,0.243,0.406,0.374,0.336,0.197,0.167,���쐼,4.5,��
2017/03/09,09:10,0.395,0.243,0.407,0.372,0.336,0.197,0.166,�쐼,6.6,��
2017/03/09,09:20,0.394,0.243,0.404,0.376,0.338,0.197,0.167,���쐼,2.9,��
2017/03/09,09:30,0.394,0.245,0.405,0.373,0.336,0.197,0.166,���쐼,10.1,��
2017/03/09,09:40,0.395,0.244,0.405,0.373,0.336,0.197,0.167,�쐼,8.5,��
2017/03/09,09:50,0.392,0.243,0.406,0.371,0.336,0.197,0.166,�쐼,7.0,��
2017/03/09,10:00,0.396,0.244,0.405,0.375,0.334,0.197,0.168,���쐼,6.4,��
2017/03/09,10:10,0.394,0.243,0.407,0.370,0.337,0.197,0.167,���쐼,5.9,��
2017/03/09,10:20,0.395,0.245,0.406,0.374,0.333,0.197,0.167,���쐼,8.6,��
2017/03/09,10:30,0.392,0.244,0.405,0.371,0.338,0.196,0.167,��,5.9,��
2017/03/09,10:40,0.396,0.244,0.406,0.375,0.335,0.197,0.167,��,3.8,��
2017/03/09,10:50,0.393,0.244,0.404,0.373,0.337,0.198,0.167,���k��,6.9,��
2017/03/09,11:00,0.395,0.242,0.405,0.372,0.333,0.197,0.167,���k��,4.5,��
2017/03/09,11:10,0.394,0.244,0.405,0.373,0.335,0.196,0.167,��,6.6,��
2017/03/09,11:20,0.395,0.245,0.402,0.371,0.335,0.197,0.167,���쐼,4.7,��
2017/03/09,11:30,0.397,0.244,0.405,0.376,0.337,0.197,0.167,�쐼,5.3,��
2017/03/09,11:40,0.395,0.245,0.403,0.370,0.336,0.196,0.167,�쐼,5.4,��
2017/03/09,11:50,0.395,0.243,0.405,0.374,0.335,0.197,0.167,��쓌,3.0,��
2017/03/09,12:00,0.394,0.246,0.402,0.373,0.336,0.196,0.166,�쓌,0.9,��
2017/03/09,12:10,0.397,0.244,0.406,0.376,0.335,0.199,0.168,���k��,4.5,��
2017/03/09,12:20,0.393,0.245,0.406,0.374,0.336,0.197,0.167,���쐼,3.2,��
2017/03/09,12:30,0.397,0.245,0.405,0.373,0.335,0.196,0.168,��쐼,3.3,��
2017/03/09,12:40,0.393,0.244,0.403,0.373,0.338,0.198,0.167,���쐼,2.5,��
2017/03/09,12:50,0.396,0.244,0.404,0.373,0.334,0.197,0.167,��쓌,3.1,��
2017/03/09,13:00,0.394,0.244,0.402,0.376,0.338,0.196,0.167,�쓌,5.5,��
2017/03/09,13:10,0.397,0.245,0.406,0.375,0.335,0.196,0.167,��,2.9,��
2017/03/09,13:20,0.395,0.244,0.404,0.376,0.340,0.196,0.169,��쓌,3.1,��
2017/03/09,13:30,0.397,0.245,0.406,0.375,0.336,0.198,0.168,��쓌,2.4,��
2017/03/09,13:40,0.396,0.246,0.404,0.375,0.337,0.195,0.167,��,3.9,��
2017/03/09,13:50,0.397,0.245,0.403,0.377,0.337,0.196,0.167,��,4.2,��
2017/03/09,14:00,0.395,0.244,0.406,0.375,0.336,0.197,0.167,��쓌,3.9,��
2017/03/09,14:10,0.394,0.244,0.403,0.375,0.338,0.197,0.169,��쓌,2.1,��
2017/03/09,14:20,0.397,0.245,0.405,0.373,0.335,0.197,0.168,�쓌,1.4,��
2017/03/09,14:30,0.394,0.245,0.404,0.375,0.338,0.198,0.167,��,1.8,��
2017/03/09,14:40,0.396,0.245,0.406,0.375,0.335,0.196,0.167,���쓌,2.8,��
2017/03/09,14:50,0.394,0.244,0.403,0.372,0.337,0.197,0.167,���쓌,2.5,��
2017/03/09,15:00,0.396,0.245,0.405,0.375,0.337,0.196,0.167,��쓌,3.9,��
2017/03/09,15:10,0.394,0.244,0.406,0.375,0.338,0.197,0.168,��쓌,3.7,��
2017/03/09,15:20,0.395,0.245,0.405,0.374,0.336,0.197,0.167,�쓌,2.5,��
2017/03/09,15:30,0.396,0.245,0.408,0.376,0.336,0.198,0.168,�쓌,1.9,��
2017/03/09,15:40,0.394,0.245,0.405,0.376,0.338,0.197,0.168,�쓌,2.2,��
2017/03/09,15:50,0.396,0.244,0.406,0.376,0.335,0.197,0.168,�쓌,2.2,��
2017/03/09,16:00,0.393,0.246,0.406,0.375,0.338,0.197,0.169,��,1.5,��
2017/03/09,16:10,0.396,0.246,0.406,0.374,0.337,0.197,0.168,��쓌,1.4,��
2017/03/09,16:20,0.395,0.245,0.408,0.377,0.336,0.197,0.168,�쓌,1.1,��
2017/03/09,16:30,0.396,0.245,0.404,0.375,0.339,0.198,0.167,��,1.1,��
2017/03/09,16:40,0.396,0.246,0.405,0.375,0.336,0.197,0.169,���k��,1.9,��
2017/03/09,16:50,0.396,0.245,0.406,0.376,0.338,0.197,0.168,�k��,1.1,��
2017/03/09,17:00,0.395,0.245,0.405,0.376,0.336,0.197,0.169,�k��,2.8,��
2017/03/09,17:10,0.396,0.246,0.405,0.375,0.337,0.197,0.168,�k,1.8,��
2017/03/09,17:20,0.395,0.245,0.405,0.375,0.336,0.197,0.168,�k,2.2,��
2017/03/09,17:30,0.396,0.245,0.407,0.374,0.337,0.198,0.169,-,CALM,��
2017/03/09,17:40,0.397,0.244,0.405,0.376,0.336,0.198,0.169,�k,1.2,��
2017/03/09,17:50,0.395,0.246,0.406,0.374,0.337,0.197,0.167,�k�k��,2.5,��
2017/03/09,18:00,0.396,0.244,0.406,0.373,0.336,0.197,0.168,���k��,0.8,��
2017/03/09,18:10,0.396,0.246,0.404,0.377,0.336,0.197,0.168,-,CALM,��
2017/03/09,18:20,0.396,0.245,0.406,0.375,0.338,0.198,0.168,-,CALM,��
2017/03/09,18:30,0.396,0.246,0.406,0.374,0.339,0.198,0.167,�k,0.8,��
2017/03/09,18:40,0.397,0.244,0.406,0.374,0.336,0.198,0.166,�k�k��,1.4,��
2017/03/09,18:50,0.398,0.244,0.406,0.376,0.337,0.197,0.168,�k��,1.7,��
2017/03/09,19:00,0.395,0.245,0.406,0.376,0.338,0.199,0.168,�k�k��,1.1,��
2017/03/09,19:10,0.395,0.245,0.407,0.375,0.337,0.197,0.168,���k��,2.0,��
2017/03/09,19:20,0.397,0.244,0.405,0.377,0.335,0.197,0.168,��,1.5,��
2017/03/09,19:30,0.397,0.246,0.407,0.375,0.336,0.198,0.169,���쐼,2.2,��
2017/03/09,19:40,0.396,0.246,0.406,0.375,0.337,0.197,0.167,���쐼,2.5,��
2017/03/09,19:50,0.396,0.246,0.406,0.375,0.337,0.198,0.167,��,2.5,��
2017/03/09,20:00,0.398,0.245,0.405,0.376,0.336,0.197,0.168,��,3.6,��
2017/03/09,20:10,0.395,0.245,0.407,0.376,0.337,0.198,0.168,��,4.5,��
2017/03/09,20:20,0.397,0.245,0.408,0.374,0.337,0.198,0.168,��,4.5,��
2017/03/09,20:30,0.397,0.245,0.406,0.375,0.336,0.198,0.167,���k��,3.5,��
2017/03/09,20:40,0.397,0.245,0.406,0.377,0.337,0.199,0.168,���k��,5.3,��
2017/03/09,20:50,0.396,0.244,0.407,0.376,0.337,0.198,0.168,���k��,6.2,��
2017/03/09,21:00,0.394,0.244,0.407,0.375,0.336,0.197,0.168,���k��,4.4,��
2017/03/09,21:10,0.397,0.244,0.407,0.375,0.337,0.197,0.168,���k��,5.5,��
2017/03/09,21:20,0.397,0.245,0.405,0.376,0.336,0.197,0.168,���k��,5.6,��
2017/03/09,21:30,0.395,0.245,0.406,0.374,0.337,0.197,0.168,���k��,5.6,��
2017/03/09,21:40,0.396,0.244,0.407,0.376,0.336,0.198,0.168,���k��,4.7,��
2017/03/09,21:50,0.395,0.246,0.406,0.376,0.336,0.197,0.168,���k��,4.5,��
2017/03/09,22:00,0.397,0.245,0.405,0.375,0.336,0.198,0.169,��,5.3,��
2017/03/09,22:10,0.395,0.245,0.406,0.375,0.336,0.198,0.168,��,3.5,��
2017/03/09,22:20,0.397,0.246,0.407,0.375,0.337,0.198,0.168,���쐼,1.2,��
2017/03/09,22:30,0.397,0.244,0.407,0.377,0.336,0.198,0.167,��,1.6,��
2017/03/09,22:40,0.395,0.245,0.406,0.375,0.337,0.197,0.168,-,CALM,��
2017/03/09,22:50,0.396,0.246,0.406,0.374,0.339,0.198,0.167,��,2.5,��
2017/03/09,23:00,0.398,0.245,0.406,0.376,0.337,0.198,0.167,��,1.9,��
2017/03/09,23:10,0.396,0.244,0.406,0.374,0.336,0.197,0.168,��,3.7,��
2017/03/09,23:20,0.395,0.246,0.406,0.376,0.339,0.198,0.167,���쐼,3.9,��
2017/03/09,23:30,0.395,0.246,0.407,0.375,0.338,0.197,0.168,��,3.6,��
2017/03/09,23:40,0.395,0.244,0.405,0.374,0.337,0.198,0.168,��,5.1,��
2017/03/09,23:50,0.397,0.244,0.406,0.375,0.337,0.198,0.167,��,5.6,��
